Regional Weather Roundup
Issued by NWS Albany, NY

Home | Current Version | Previous Version | Graphics & Text | Print | Product List | Glossary On
Versions: 1 2 3 4 5 6 7 8 9 10 11 12 13 14 15 16 17 18 19 20 21 22 23 24 25 26 27 28 29 30 31 32 33 34 35 36 37 38 39 40 41 42 43 44 45 46 47 48 49 50
106
ASUS41 KALY 021610
RWRALY

NEW YORK STATE HOURLY WEATHER ROUNDUP
NATIONAL WEATHER SERVICE ALBANY NY
1200 PM EDT MON MAY 02 2016

NOTE: "FAIR" INDICATES FEW OR NO CLOUDS BELOW 12,000 FEET WITH NO
SIGNIFICANT WEATHER AND/OR NO OBSTRUCTIONS TO VISIBILITY.

NYZ032-033-038>043-046>054-057>066-NYZ062>081-082-084-021700-
EAST


CITY           SKY/WX    TMP DP  RH WIND       PRES   REMARKS
ALBANY         LGT RAIN  47  45  93 S8        29.91F FOG
GLENS FALLS    LGT RAIN  47  44  90 N5        29.91F
POUGHKEEPSIE   CLOUDY    50  45  83 CALM      29.93F
MONTGOMERY       N/A     48  45  89 CALM      29.93F
WHITE PLAINS   FOG       48  46  93 CALM      29.94F VSB 1
ISLIP          CLOUDY    55  49  80 SE7       29.94F
NEW YORK CITY  CLOUDY    52  47  83 S6        29.96S
CENTRAL PARK   CLOUDY    52  47  83 CALM      29.98S
$$

NYZ005>009-017-018-044>046-055-056-021700-
CENTRAL


CITY           SKY/WX    TMP DP  RH WIND       PRES   REMARKS
FULTON         LGT RAIN  51  47  86 N6        29.92R
SYRACUSE       LGT RAIN  49  48  97 NE5       29.89F
ROME           LGT RAIN  47  47 100 SE3       29.91F
ELMIRA         CLOUDY    51  46  83 NE8       29.89S
BINGHAMTON     CLOUDY    48  47  96 NW3       29.87F
MONTICELLO     CLOUDY    45  43  93 CALM      29.94S
$$

NYZ026>034-041>043-087-021700-
NORTH


CITY           SKY/WX    TMP DP  RH WIND       PRES   REMARKS
WATERTOWN      LGT RAIN  46  44  93 N8        29.94R FOG
FORT DRUM      NOT AVBL
MASSENA        CLOUDY    47  43  86 NE9       29.96F
SARANAC LAKE   LGT RAIN  44  41  89 E5        29.89R FOG
PLATTSBURGH    LGT RAIN  45  43  93 E6        29.95F FOG
$$

NYZ001>004-010>016-019>021-085-021700-
WEST


CITY           SKY/WX    TMP DP  RH WIND       PRES   REMARKS
NIAGARA FALLS  CLOUDY    46  42  86 NE10      29.98F
BUFFALO        LGT RAIN  46  43  89 N7        29.98R
DUNKIRK        CLOUDY    45  43  93 N9        30.00R
JAMESTOWN      CLOUDY    45  41  87 NW12      29.95R VSB 1/4
WELLSVILLE     LGT RAIN  48  46  93 N7        29.93R FOG
ROCHESTER      RAIN      46  44  93 N8        29.98R FOG
PENN YAN       CLOUDY    48  44  86 NW7       29.94R
$$

             KEY
       WCI = WIND CHILL INDEX
       VSB = VISIBILITY
       HX  = HEAT INDEX
$$




USA.gov is the U.S. government's official web portal to all federal, state and local government web resources and services.